Weather History for Salt Lake City, UT

Change the Weather History Date:

Thursday, July 25, 2013

  Actual Average Record
Temperature  
Mean Temperature 87 °F 80 °F  
Max Temperature 98 °F 94 °F 103 °F (1933)
Min Temperature 75 °F 66 °F 51 °F (1964)
Degree Days  
Heating Degree Days 0 0  
Month to date heating degree days 0 0  
Since 1 June heating degree days 4 46  
Since 1 July heating degree days 0 0  
Cooling Degree Days 22 15  
Month to date cooling degree days 494 336  
Year to date cooling degree days 887 573  
Since 1 June cooling degree days 817 523  
Growing Degree Days 36 (Base 50)    
Moisture  
Dew Point 45 °F    
Average Humidity 29    
Maximum Humidity 46    
Minimum Humidity 11    
Precipitation  
Precipitation 0.00 in 0.02 in 0.91 in (1998)
Month to date precipitation 1.15 0.48  
Year to date precipitation 7.27 9.69  
Snow  
Snow 0.00 in 0.00 in - ()
Month to date snowfall 0.0 0.0  
Since 1 July snowfall 0.0 0.0  
Snow Depth 0.00 in    
Sea Level Pressure  
Sea Level Pressure 29.87 in    
Wind  
Wind Speed 6 mph (SE)    
Max Wind Speed 14 mph    
Max Gust Speed 20 mph    
Visibility 10 miles    
Events      
T = Trace of Precipitation, MM = Missing Value Source: NWS Daily Summary

Daily Weather History Graph

Daily Weather History Graph

Search for Another Location

Airport:

Trip Planner

Search our weather history database for the weather conditions in past years. The results will help you decide how hot, cold, wet, or windy it might be!

Date:

Astronomy

Jul. 25, 2013 Rise Set
Actual Time 6:18 AM MDT 8:50 PM MDT
Civil Twilight 5:46 AM MDT 9:21 PM MDT
Nautical Twilight 5:07 AM MDT 10:00 PM MDT
Astronomical Twilight 4:23 AM MDT 10:44 PM MDT
Moon 10:30 PM MDT (7/25) 9:53 AM MDT (7/25)
Length of Visible Light 15h 34m
Length of Day
14h 31m
Waning Gibbous, 88% of the Moon is Illuminated
Jul 25
Waning Gibbous
Jul 29
Last Quarter
Aug 6
New
Aug 14
First Quarter
Aug 20
Full

Hourly Weather History & Observations

Time (MDT) Temp. Heat Index Dew Point Humidity Pressure Visibility Wind Dir Wind Speed Gust Speed Precip Events Conditions
12:53 AM 78.1 °F - 48.9 °F 36% 29.82 in 10.0 mi ESE 6.9 mph - N/A   Mostly Cloudy
1:53 AM 80.1 °F - 51.1 °F 36% 29.81 in 10.0 mi SSE 9.2 mph - N/A   Mostly Cloudy
2:53 AM 78.1 °F - 48.9 °F 36% 29.82 in 10.0 mi ESE 8.1 mph - N/A   Mostly Cloudy
3:53 AM 78.1 °F - 52.0 °F 40% 29.82 in 10.0 mi SE 8.1 mph - N/A   Mostly Cloudy
4:53 AM 77.0 °F - 50.0 °F 39% 29.83 in 10.0 mi SE 6.9 mph - N/A   Mostly Cloudy
5:53 AM 75.0 °F - 50.0 °F 41% 29.85 in 10.0 mi ESE 5.8 mph - N/A   Mostly Cloudy
6:53 AM 75.9 °F - 53.1 °F 45% 29.87 in 10.0 mi SE 6.9 mph - N/A   Scattered Clouds
7:53 AM 79.0 °F - 53.1 °F 40% 29.88 in 10.0 mi South 5.8 mph - N/A   Scattered Clouds
8:53 AM 81.0 °F 80.4 °F 53.1 °F 38% 29.90 in 10.0 mi South 8.1 mph - N/A   Scattered Clouds
9:53 AM 86.0 °F - 50.0 °F 29% 29.90 in 10.0 mi SSW 6.9 mph - N/A   Scattered Clouds
10:53 AM 89.1 °F - 46.9 °F 23% 29.91 in 10.0 mi Variable 3.5 mph - N/A   Scattered Clouds
11:53 AM 93.0 °F - 43.0 °F 18% 29.91 in 10.0 mi Variable 4.6 mph - N/A   Scattered Clouds
12:53 PM 93.9 °F - 34.0 °F 12% 29.91 in 10.0 mi Calm Calm - N/A   Scattered Clouds
1:53 PM 97.0 °F - 33.1 °F 11% 29.89 in 10.0 mi NW 6.9 mph - N/A   Scattered Clouds
2:53 PM 96.1 °F - 37.9 °F 13% 29.88 in 10.0 mi Variable 3.5 mph - N/A   Scattered Clouds
3:53 PM 98.1 °F - 39.9 °F 13% 29.87 in 10.0 mi NW 11.5 mph 16.1 mph N/A   Scattered Clouds
4:53 PM 97.0 °F - 36.0 °F 12% 29.86 in 10.0 mi North 10.4 mph 19.6 mph N/A   Scattered Clouds
5:53 PM 97.0 °F - 35.1 °F 11% 29.86 in 10.0 mi NNW 10.4 mph 16.1 mph N/A   Scattered Clouds
6:53 PM 96.1 °F - 36.0 °F 12% 29.85 in 10.0 mi North 11.5 mph - N/A   Scattered Clouds
7:53 PM 93.9 °F - 37.0 °F 14% 29.85 in 10.0 mi North 8.1 mph - N/A   Scattered Clouds
8:53 PM 90.0 °F - 41.0 °F 18% 29.86 in 10.0 mi WNW 5.8 mph - N/A   Scattered Clouds
9:53 PM 84.0 °F 82.6 °F 54.0 °F 35% 29.88 in 10.0 mi North 3.5 mph - N/A   Scattered Clouds
10:53 PM 82.9 °F - 43.0 °F 24% 29.90 in 10.0 mi South 4.6 mph - N/A   Scattered Clouds
11:53 PM 81.0 °F - 44.1 °F 27% 29.91 in 10.0 mi SE 4.6 mph - N/A   Partly Cloudy